Location: Newark
(47.3150°N, 5.1150°E)
Time: 14:46:30
(UTC+00:00)

O/OREOS (USA 219) - Pass Details

Date: 22 December 2019
Orbit: 621 x 646 km, 72.0° (Epoch: 22 May)

Event Time Altitude Azimuth Distance (km) Brightness Sun altitude
Exits shadow 03:33:58 15° 102° (ESE) 1,729 ? -37.8°
Drops below altitude 10° 03:34:56 10° 110° (ESE) 2,024 ? -37.6°
Sets 03:37:29 0° 123° (ESE) 2,923 ? -37.2°
